DELTA 1 DEB, 27729

Orbit data source: Space-Track

DELTA 1 DEB, 27729 is space debris in LEO originally from a launch on Thu, 14 Jul 1977 UTC launched from the Air Force Eastern Test Range (AFETR). Debris objects in space refer to the collection of defunct objects orbiting the Earth. Examples of debris include non-operational satellites, rocket bodies, and fragments generated from explosions, collisions, or faulty payload assembly.

Loading next visibility...
Identifier
27729, 1977-065GH
Orbit
LEO
Country
Flag of USUS
Related business
Manufacturer
Unknown
Mission
Spacecraft
Bus & Motor
Unknown
Mass
Unknown
Launch date (UTC)
1977-07-14 (48 years ago)
Launch vehicle
Unknown
Launch site
Air Force Eastern Test Range (AFETR)
Object type
Payload
Rocket body
Debris
Shape & HBR
Unknown shape, 0.1 m
Radar Cross Section
Small (<0.1 m²)

Expand to show TLE details & history
Last TLE update: 22 hours ago

TLE from 22 hours ago
0 DELTA 1 DEB
1 27729U 77065GH  25348.62108703  .00008340  00000-0  14566-2 0  9990
2 27729  28.6385 129.8278 0377548 109.3095 254.8697 14.29133294675646
Epoch: 2025-12-14T14:54Z
TLE epoch observation values (Epoch: 2025-12-14T14:54:21.919Z)
Latitude
-0.00001°
Longitude
-177.29493°
Altitude
873.016 km
Speed
7.377 km/s
True Right ascension
08h 39m 18s
True Declination
0° 00' 00"
Sunlit
Object was in full shadow at epoch
Visualization orbit readout
Latitude
Unknown
Longitude
Unknown
Altitude
Unknown
Speed
Unknown
Apparent Right ascension
Unknown
Apparent Declination
Unknown
Sunlit
N/A
Visualization observer readout
Local Sidereal Time
11:56:07
Azimuth
Unknown
Elevation
Unknown
Doppler factor
Unknown
Orbital elements
Apogee altitude
1,069.627 km
Perigee altitude
527.71 km
Semi-major axis
7,176.805 km
Eccentricity
0.03775
Inclination
28.6385°
RAAN
129.8278°
Arg. of periapsis
109.3095°
True anomaly
250.74769°
Mean anomaly
254.8697°
Eccentric anomaly
252.80321°
Mean motion
3.56982 °/min
Orbital period
100.85 mins
BSTAR
0.0014566
Loading maneuver chart data...
Computing Atmospheric mass density...
Loading historical data...
Loading historical data...
Loading historical data...
Loading historical data...
Loading historical data...
Loading historical data...
Loading historical data...

Documentation

Showing up to 5 results
|